Flag for Liberia Weather past 2 weeks in Monrovia, Liberia

Now
73 °F

Passing clouds.


Feels Like: 70 °F
Forecast: 76 / 88 °F
Wind: No wind

Location: Roberts Field

Current Time: Dec 28, 2014 at 1:51:23 AM

Latest Report: Dec 28, 2014 at 1:30 AM


Visibility: 4 mi

Pressure: 29.89 "Hg

Humidity: 94%

Dew point: 72 °F

Location of MonroviaLocation

Historic Weather in Monrovia — Graph

°F

Monrovia temperature yesterday

Maximum temperature yesterday: 88 °F (at 12:00 PM)
Minimum temperature yesterday: 70 °F (at 7:00 AM)
Average temperature yesterday: 79 °F

Past Weeks' High & Low Weather Summary

 TemperatureHumidityPressure
High91 °F (Dec 23, 2:00 PM)100% (Dec 17, 6:00 AM)30.01 "Hg (Dec 17, 6:00 AM)
Low70 °F (Dec 27, 7:00 AM)41% (Dec 13, 3:30 PM)29.77 "Hg (Dec 13, 3:30 PM)
Average81 °F82%29.89 "Hg
* Reported Dec 13 3:00 AM — Dec 28 1:00 AM, Monrovia, Weather by CustomWeather, © 2014

Note: Actual official high and low records may vary slightly from our data, if they occured in-between our weather recording intervals... More about our weather records

Advertising

Monrovia weather history for previous 24 hours

 ConditionsComfort  
Time TempWeatherWind HumidityBarometerVisibility
1:00 AM
Dec 28
73 °FPassing clouds.No wind100%29.89 "Hg4 mi
12:30 AM73 °FFog.No wind100%29.89 "Hg3 mi
12:00 AM73 °FFog.No wind100%29.92 "Hg2 mi
11:30 PM
Dec 27
73 °FFog.No wind100%29.92 "Hg2 mi
10:30 PM75 °FClear.N/A94%29.92 "Hg4 mi
10:00 PM75 °FClear.No wind94%29.92 "Hg6 mi
9:30 PM77 °FClear.No wind94%29.92 "Hg6 mi
9:00 PM77 °FClear.No wind94%29.92 "Hg6 mi
8:00 PM79 °FClear.No wind89%29.89 "Hg6 mi
7:00 PM81 °FPassing clouds.No wind84%29.86 "HgN/A
6:30 PM84 °FPassing clouds.3 mph74%29.86 "HgN/A
6:00 PM84 °FPassing clouds.3 mph74%29.83 "HgN/A
5:30 PM86 °FPassing clouds.6 mph70%29.83 "HgN/A
5:00 PM86 °FPassing clouds.8 mph70%29.83 "Hg6 mi
4:30 PM88 °FScattered clouds.8 mph66%29.83 "Hg6 mi
4:00 PM86 °FScattered clouds.7 mph70%29.83 "Hg6 mi
3:30 PM88 °FScattered clouds.7 mph66%29.83 "Hg6 mi
3:00 PM88 °FPartly sunny.10 mph66%29.83 "Hg6 mi
2:30 PM88 °FPartly sunny.3 mph52%29.83 "Hg6 mi
2:00 PM88 °FPartly sunny.No wind59%29.86 "Hg6 mi
1:30 PM88 °FPartly sunny.6 mph62%29.86 "Hg6 mi
1:00 PM88 °FPartly sunny.No wind62%29.89 "Hg6 mi
12:30 PM86 °FPartly sunny.3 mph70%29.89 "Hg6 mi
12:00 PM88 °FPartly sunny.6 mph66%29.92 "Hg6 mi
11:30 AM86 °FPartly sunny.5 mph75%29.95 "Hg6 mi
11:00 AM84 °FPartly sunny.7 mph74%29.95 "Hg6 mi
10:30 AM81 °FScattered clouds.7 mph84%29.95 "Hg5 mi
10:00 AM79 °FScattered clouds.7 mph84%29.95 "Hg4 mi
9:30 AM75 °FFog.7 mph94%29.95 "Hg3 mi
9:00 AM73 °FFog.5 mph94%29.95 "Hg2 mi
8:30 AM73 °FFog.7 mph94%29.95 "Hg1 mi
8:00 AM72 °FLow clouds.6 mph94%29.95 "Hg1 mi
7:30 AM72 °FLow clouds.6 mph94%29.92 "Hg1 mi
7:00 AM70 °FLow clouds.5 mph100%29.92 "Hg1 mi
6:00 AM73 °FPassing clouds.5 mph94%29.89 "Hg4 mi
5:30 AM73 °FPassing clouds.6 mph94%29.89 "Hg4 mi
5:00 AM73 °FPassing clouds.5 mph94%29.89 "Hg4 mi
4:30 AM73 °FPassing clouds.5 mph94%29.89 "Hg4 mi
3:30 AM73 °FPassing clouds.3 mph94%29.86 "Hg4 mi
3:00 AM73 °FPassing clouds.6 mph94%29.86 "Hg4 mi
2:00 AM73 °FPassing clouds.No wind94%29.89 "Hg4 mi
1:30 AM73 °FPassing clouds.No wind94%29.89 "Hg4 mi
Weather by CustomWeather, © 2014

See weather overviewHow to use our weather pages